Wind_Speed
29 30 30 30 31 30 26 23 22 23 23 24 24 23 21 20 19 19 17 17 17 16 16 15 15 14 14 13 12 11 9 9 8 7 7 6 6 5 5 4 4 3 3 3 3 2 2 2 2
31 31 32 32 33 31 26 24 24 24 25 25 25 24 23 22 21 20 19 18 18 18 17 17 16 16 15 14 13 13 11 10 9 9 8 7 7 6 6 5 5 5 5 4 4 3 3 3 3
33 33 34 34 33 30 27 26 26 27 27 27 27 26 25 23 22 21 21 20 20 19 18 18 17 17 16 15 15 14 13 12 11 10 9 8 8 7 7 6 6 6 6 6 5 5 5 4 4
35 36 36 36 33 30 29 28 28 28 29 29 28 28 26 25 24 23 23 22 21 21 20 19 19 18 18 17 16 15 14 13 12 12 11 10 9 8 8 8 7 7 7 6 6 6 5 6 6
37 38 38 37 34 31 30 30 30 30 30 30 29 29 27 26 25 25 24 24 23 23 22 21 20 20 19 18 17 17 16 15 14 13 13 12 11 10 9 9 8 8 8 7 7 7 7 7 6
38 40 40 37 34 32 32 32 31 31 31 31 30 29 29 28 27 26 26 26 25 24 23 23 22 21 21 20 19 18 18 17 16 15 15 14 13 12 11 10 9 9 9 8 8 8 8 8 8
40 40 40 38 36 34 33 34 33 33 33 32 32 31 30 29 29 28 27 27 27 26 25 24 24 23 22 22 21 20 19 18 17 17 16 16 15 14 13 12 11 10 10 9 9 8 8 8 9
42 42 42 40 38 36 36 36 35 35 35 35 34 33 31 31 30 30 29 29 28 28 27 25 25 24 24 23 22 22 21 20 19 18 17 17 16 15 14 13 12 12 11 11 10 10 10 10 9
44 45 43 40 39 38 38 38 38 38 38 37 36 35 34 33 33 32 31 30 29 29 28 27 27 26 25 24 24 23 22 22 20 19 19 19 18 17 16 15 14 13 13 12 12 11 11 11 11
45 46 43 42 42 42 41 41 41 41 40 39 38 37 36 36 35 34 33 32 31 30 30 29 28 27 27 26 25 25 24 23 22 21 21 20 20 19 18 17 16 15 14 14 14 13 13 12 12
47 46 45 45 44 44 44 44 43 43 42 41 40 39 38 38 37 36 35 34 33 32 31 30 29 29 28 28 27 27 26 25 24 23 23 22 22 21 20 19 18 17 16 16 15 15 15 14 14
48 47 47 47 47 47 47 46 46 44 43 43 43 42 41 40 39 38 37 36 35 34 33 32 31 30 30 29 29 29 28 27 27 26 25 25 24 23 22 21 20 19 19 18 17 17 17 16 16
49 48 49 49 49 49 49 49 48 46 45 45 45 45 43 42 41 41 40 39 38 37 35 34 33 32 31 31 30 30 30 29 29 28 27 26 26 25 24 24 23 22 21 20 19 19 18 18 18
50 51 51 51 52 52 52 51 51 48 48 47 47 47 46 45 44 43 42 42 40 39 38 37 35 34 33 32 31 30 30 29 29 30 29 28 28 27 26 25 24 23 23 22 22 21 20 20 20
51 52 53 53 54 54 54 54 52 50 50 50 49 49 48 47 46 45 44 44 42 41 40 39 38 36 35 34 33 32 32 31 30 29 30 30 29 28 28 27 27 26 25 24 24 23 22 22 21
50 52 53 52 54 55 57 57 54 53 52 52 51 50 50 49 48 47 46 45 44 43 42 41 40 38 37 36 35 34 34 33 32 31 30 30 29 29 29 29 28 27 27 26 26 25 24 24 23
51 51 52 52 54 56 58 58 55 55 54 53 52 51 50 50 49 48 47 47 46 45 44 43 42 40 39 38 36 35 35 35 34 33 32 31 30 30 30 29 29 28 28 27 27 26 26 26 26
49 50 51 51 52 54 56 57 55 55 54 52 52 51 50 50 49 49 48 47 47 46 45 44 44 43 41 40 38 37 36 36 35 34 34 33 32 32 32 31 31 30 30 30 29 29 28 28 28
48 49 49 49 49 51 53 54 53 54 54 53 52 51 51 50 49 50 50 49 48 47 46 45 45 44 42 41 40 39 38 37 36 36 35 35 34 33 33 33 33 32 32 32 31 31 31 30 30
44 47 47 47 47 48 50 51 51 53 53 52 52 52 51 51 50 49 50 50 49 48 47 46 45 44 43 42 41 40 40 39 38 37 37 36 35 35 35 35 35 35 34 33 33 33 33 33 32
40 42 43 44 44 46 48 49 48 50 51 51 52 53 52 51 50 49 50 50 49 48 47 47 46 45 44 44 43 42 41 40 39 38 38 37 37 36 36 36 36 36 36 35 35 35 34 34 34
37 38 40 41 42 44 46 49 48 48 49 49 50 51 52 51 50 50 50 50 50 49 48 47 46 46 45 45 43 42 42 41 41 40 39 39 38 38 37 37 37 37 37 37 37 37 36 36 36
33 34 36 37 40 42 44 47 47 47 48 47 47 49 50 50 50 50 50 50 50 50 49 48 47 47 46 45 44 43 42 42 42 42 41 40 40 39 39 39 39 39 39 39 38 38 38 38 37
30 32 33 34 36 39 41 43 46 46 46 46 47 47 48 49 49 50 50 51 50 51 50 50 48 48 47 46 45 44 44 43 43 42 42 41 41 41 40 40 40 40 40 40 40 39 39 39 39
29 29 30 32 33 36 37 40 43 43 44 44 45 46 47 48 49 49 49 50 51 51 50 50 49 48 48 46 45 45 45 44 44 43 43 43 42 41 41 41 40 40 41 41 41 41 41 40 40
27 27 28 31 33 33 35 38 39 40 42 43 44 46 47 48 49 49 48 48 50 51 51 49 49 49 48 47 46 45 45 45 44 44 43 43 43 42 41 42 42 42 41 41 41 41 40 40 39
24 26 27 29 31 33 35 37 37 39 40 42 42 43 46 47 47 48 47 47 48 49 49 49 49 49 48 48 47 46 45 45 45 44 44 43 43 44 43 42 42 43 42 42 42 42 41 41 40
24 24 24 26 28 30 33 35 37 38 39 40 41 42 45 46 46 47 47 47 47 47 47 48 49 48 48 47 47 46 46 46 46 45 45 44 44 44 44 43 43 43 43 43 43 42 42 42 41
21 24 24 25 27 28 31 33 35 36 37 38 39 40 43 44 45 46 47 47 47 47 47 48 48 48 48 47 46 45 46 46 45 45 45 45 44 44 44 43 43 44 43 42 42 42 42 42 41
20 21 22 24 25 27 29 32 33 34 36 38 38 38 39 42 43 45 46 46 47 47 48 48 49 48 48 47 46 46 46 46 46 46 46 45 45 44 44 44 44 44 43 42 43 42 42 42 42
Wind_Direction
245 245 244 244 245 245 244 243 244 244 243 242 241 240 238 237 236 236 234 233 232 231 230 230 229 229 229 229 226 225 225 224 222 221 222 221 223 226 230 233 236 239 239 245 246 245 238 235 237
246 246 245 245 245 245 244 244 243 244 243 241 240 239 238 237 237 236 234 232 231 231 231 231 230 230 231 231 229 227 227 226 225 226 227 226 228 230 232 235 239 243 245 250 252 250 246 248 250
247 246 246 246 246 246 245 244 243 243 242 241 241 239 238 238 237 237 236 234 232 231 231 231 231 231 231 231 231 229 228 227 227 228 229 230 231 233 236 239 244 249 250 251 252 251 250 252 255
247 246 246 246 246 245 245 244 243 242 241 241 240 239 239 239 238 237 236 236 234 232 232 231 231 230 230 230 230 230 229 228 229 230 231 231 232 235 238 240 246 250 251 251 250 251 252 256 256
246 246 246 246 246 245 244 243 242 241 241 240 240 239 238 238 238 238 237 236 234 233 232 231 231 230 230 230 231 231 231 230 230 231 232 232 234 237 240 241 245 248 250 250 251 255 255 258 259
247 247 247 247 246 244 243 242 241 241 241 240 239 239 237 237 237 237 237 236 234 233 233 232 232 231 230 231 231 232 232 231 231 232 232 234 236 239 241 242 245 246 248 251 254 256 258 259 261
248 248 248 247 245 243 242 242 241 240 240 240 239 238 237 237 237 237 236 235 234 233 233 233 233 232 232 232 232 232 232 231 232 232 232 234 237 239 240 241 241 243 246 249 252 255 257 258 260
249 249 247 246 245 243 242 241 240 240 240 240 240 238 238 237 236 236 236 235 234 234 234 234 234 233 232 232 232 233 232 232 232 231 231 233 236 238 240 240 239 241 245 249 252 256 257 259 260
250 249 248 247 246 244 242 241 240 239 239 239 239 239 238 237 236 235 235 234 234 233 234 234 235 234 233 233 232 233 232 232 232 232 232 234 236 238 240 241 242 243 246 249 253 256 257 258 259
251 250 249 248 246 245 243 242 240 240 239 239 239 238 237 237 236 235 235 234 234 234 234 234 235 235 235 233 232 233 234 233 234 234 233 235 236 238 240 242 244 245 246 249 252 255 256 256 259
251 251 249 247 246 245 243 242 241 240 239 239 239 237 236 236 236 235 234 233 233 233 233 233 234 235 234 234 234 235 235 235 235 235 234 236 237 238 240 242 244 246 248 250 253 255 255 256 258
251 250 249 247 245 244 243 242 241 240 239 239 238 237 235 235 235 234 233 233 233 233 234 234 234 235 235 235 235 236 236 236 236 236 236 237 238 239 239 241 245 247 248 250 253 254 256 257 258
251 249 248 247 246 245 244 242 241 239 238 238 238 237 236 235 234 234 233 233 233 234 234 234 235 235 236 236 236 237 238 238 237 237 237 238 238 239 240 241 243 246 249 250 253 254 255 257 259
251 249 248 247 247 246 244 242 241 239 238 238 237 237 236 235 235 234 234 234 234 234 235 235 236 236 236 236 236 237 237 238 238 238 238 239 239 239 241 242 244 247 249 250 252 253 253 256 258
252 251 249 247 247 246 244 242 241 239 238 238 237 237 237 236 235 234 234 234 234 234 235 235 236 235 236 236 237 237 237 237 238 239 239 239 240 240 242 244 246 247 249 250 251 252 253 255 258
254 252 250 247 246 245 244 242 240 239 238 237 237 236 236 236 235 234 234 234 234 234 235 235 234 235 236 237 238 238 237 237 237 238 239 239 239 240 241 243 245 247 249 249 250 251 254 256 258
253 252 251 248 246 245 244 243 239 239 238 237 236 235 235 235 235 234 234 233 233 234 235 234 234 235 235 237 237 238 237 237 237 239 240 241 240 240 242 243 245 247 249 249 250 251 254 256 257
255 253 252 249 247 245 244 243 240 237 236 235 234 233 234 234 234 234 234 233 233 233 234 234 234 234 235 236 237 237 237 237 238 239 240 241 240 240 242 244 246 248 250 250 251 252 254 256 257
258 255 253 250 247 245 243 242 239 236 234 233 233 232 232 233 233 233 233 233 233 232 233 233 233 234 235 235 236 237 238 238 239 239 240 241 241 241 243 244 246 248 250 252 253 254 255 256 258
257 254 251 249 246 244 241 240 237 233 233 232 232 232 232 232 231 232 233 233 232 232 232 232 233 234 235 235 236 237 237 238 239 239 240 241 241 242 243 244 246 248 250 251 253 254 255 257 258
256 253 249 247 244 242 240 238 234 232 232 231 230 231 231 231 231 231 232 232 231 231 231 231 232 234 234 235 236 236 237 238 239 240 241 241 242 244 244 245 245 247 249 251 253 254 256 257 258
256 252 247 245 243 241 240 239 235 231 230 230 230 230 230 230 230 231 231 231 230 229 229 230 231 233 234 234 235 236 237 238 239 240 241 242 243 245 246 246 247 248 250 251 252 254 255 256 257
256 250 245 244 243 241 238 239 235 231 230 229 229 229 229 229 230 231 230 231 230 229 228 229 230 232 233 234 235 235 237 238 240 241 242 243 244 245 246 247 247 248 250 251 252 254 255 256 257
253 247 246 244 241 239 236 237 234 231 230 229 227 228 228 229 229 230 230 230 230 229 229 229 231 232 233 234 235 236 238 239 240 242 243 244 245 246 247 248 249 249 249 250 251 253 254 256 256
249 245 244 242 241 241 236 236 234 231 229 228 228 227 228 228 228 229 229 229 229 229 230 230 231 232 233 234 235 237 238 239 241 242 243 243 245 247 248 248 249 249 249 250 251 252 254 256 256
246 246 245 243 243 241 238 237 233 231 229 227 227 227 228 228 228 229 229 229 229 229 229 230 231 232 233 235 236 237 238 239 240 241 243 244 244 246 248 248 249 249 250 251 252 252 253 255 256
243 243 245 245 246 244 240 237 232 229 228 227 226 227 228 228 229 228 228 229 228 229 230 230 231 232 234 235 236 237 238 239 240 242 243 244 244 245 247 249 249 249 250 251 252 253 253 255 255
242 241 241 241 243 244 240 236 231 228 228 227 226 226 227 228 228 227 228 229 228 229 229 230 232 233 234 235 236 237 238 239 241 242 243 243 244 245 246 249 249 249 250 251 252 253 254 254 254
242 239 239 242 241 242 240 234 232 231 230 229 227 225 226 227 227 228 229 229 228 229 230 231 232 233 234 235 236 237 238 239 241 242 244 244 244 246 247 249 250 249 250 251 252 252 253 252 254
243 241 240 239 235 237 241 238 234 234 232 232 230 227 225 225 226 227 228 230 229 229 230 231 232 232 234 235 236 237 239 240 241 242 244 245 245 245 247 249 249 249 249 250 251 253 252 253 254
Height
5798 5799 5801 5803 5805 5807 5810 5814 5816 5818 5819 5820 5822 5823 5826 5829 5831 5835 5835 5835 5837 5838 5840 5841 5843 5845 5847 5849 5850 5851 5853 5854 5856 5857 5858 5860 5861 5862 5863 5864 5865 5866 5867 5868 5869 5869 5870 5871 5871
5792 5794 5796 5798 5799 5802 5807 5810 5812 5813 5814 5816 5817 5820 5822 5824 5827 5829 5830 5831 5833 5835 5837 5839 5840 5842 5844 5846 5848 5849 5851 5853 5854 5855 5857 5858 5859 5861 5862 5863 5864 5865 5866 5867 5868 5869 5869 5870 5871
5786 5788 5790 5791 5793 5798 5803 5805 5807 5808 5809 5811 5813 5815 5818 5820 5822 5824 5826 5828 5830 5832 5834 5836 5838 5839 5841 5843 5845 5847 5849 5850 5852 5853 5855 5856 5858 5859 5861 5862 5863 5864 5865 5866 5867 5867 5868 5869 5870
5779 5781 5783 5785 5789 5794 5797 5799 5801 5802 5804 5806 5808 5811 5814 5817 5818 5820 5822 5824 5826 5828 5830 5832 5834 5836 5838 5840 5842 5844 5846 5848 5850 5851 5853 5854 5856 5857 5859 5860 5861 5862 5863 5864 5865 5866 5867 5868 5869
5772 5773 5775 5778 5783 5788 5791 5793 5794 5796 5798 5801 5803 5806 5809 5812 5814 5816 5818 5820 5822 5824 5826 5829 5831 5833 5835 5837 5839 5841 5843 5845 5847 5849 5851 5852 5854 5855 5857 5858 5859 5860 5862 5863 5864 5865 5866 5866 5867
5764 5766 5768 5772 5777 5781 5784 5786 5788 5790 5793 5795 5798 5801 5804 5807 5809 5811 5813 5815 5817 5820 5822 5824 5827 5829 5831 5834 5836 5838 5840 5842 5844 5846 5848 5850 5851 5853 5854 5856 5857 5858 5860 5861 5862 5863 5864 5865 5866
5756 5758 5760 5765 5770 5774 5777 5779 5781 5784 5786 5789 5792 5795 5798 5801 5803 5806 5808 5810 5812 5815 5818 5820 5823 5825 5827 5830 5832 5834 5836 5839 5841 5843 5845 5847 5849 5850 5852 5853 5855 5856 5857 5859 5860 5861 5862 5863 5864
5747 5749 5752 5757 5761 5766 5769 5771 5774 5776 5779 5782 5785 5789 5792 5795 5797 5800 5802 5804 5807 5810 5813 5815 5818 5821 5823 5825 5828 5830 5832 5835 5837 5839 5841 5844 5845 5847 5849 5851 5852 5854 5855 5857 5858 5859 5860 5861 5862
5737 5739 5743 5749 5753 5757 5760 5762 5765 5768 5771 5774 5778 5782 5785 5788 5791 5794 5796 5799 5802 5805 5808 5810 5813 5816 5818 5821 5823 5826 5828 5831 5833 5835 5838 5840 5842 5844 5846 5848 5849 5851 5852 5854 5855 5856 5858 5859 5859
5726 5728 5736 5740 5743 5746 5749 5752 5756 5759 5763 5767 5770 5774 5777 5780 5784 5787 5790 5793 5796 5799 5802 5805 5808 5811 5813 5816 5818 5821 5823 5826 5829 5831 5834 5836 5838 5840 5842 5844 5846 5848 5849 5851 5852 5854 5855 5856 5857
5715 5719 5725 5727 5731 5734 5738 5742 5745 5749 5754 5758 5762 5765 5769 5772 5776 5780 5783 5787 5790 5793 5796 5799 5802 5805 5808 5811 5813 5816 5819 5821 5824 5827 5829 5832 5834 5836 5838 5841 5843 5844 5846 5847 5849 5850 5851 5853 5854
5704 5708 5711 5715 5718 5722 5726 5730 5734 5739 5745 5748 5751 5755 5759 5764 5768 5772 5776 5779 5783 5786 5789 5793 5796 5799 5802 5805 5808 5810 5813 5816 5819 5821 5824 5827 5829 5832 5834 5836 5838 5840 5842 5844 5845 5847 5848 5849 5851
5691 5695 5698 5702 5705 5709 5713 5717 5722 5728 5733 5737 5740 5744 5749 5754 5759 5763 5767 5771 5775 5778 5782 5786 5789 5792 5795 5798 5801 5804 5807 5810 5813 5816 5819 5821 5824 5827 5829 5832 5834 5836 5838 5840 5841 5843 5844 5845 5847
5678 5681 5684 5688 5691 5695 5699 5704 5709 5717 5721 5725 5729 5734 5739 5744 5748 5753 5757 5762 5766 5771 5774 5778 5782 5785 5788 5791 5794 5797 5800 5803 5806 5809 5812 5815 5818 5821 5824 5826 5829 5831 5833 5835 5837 5839 5840 5841 5843
5663 5666 5669 5673 5676 5680 5684 5690 5697 5704 5707 5712 5717 5722 5727 5732 5737 5743 5748 5753 5757 5762 5766 5770 5774 5777 5781 5784 5787 5791 5794 5797 5800 5803 5806 5809 5812 5815 5818 5821 5823 5825 5827 5830 5832 5834 5835 5837 5838
5647 5649 5654 5659 5661 5665 5669 5675 5684 5689 5693 5698 5704 5709 5714 5720 5726 5732 5737 5742 5747 5752 5757 5761 5765 5770 5773 5777 5780 5783 5787 5790 5793 5796 5800 5803 5806 5809 5812 5815 5817 5819 5822 5824 5826 5828 5830 5832 5833
5632 5634 5639 5644 5647 5649 5653 5659 5669 5673 5679 5685 5691 5697 5703 5709 5714 5720 5726 5731 5737 5742 5747 5752 5757 5761 5766 5769 5773 5776 5779 5783 5786 5790 5793 5796 5799 5802 5805 5808 5811 5814 5816 5818 5821 5823 5825 5826 5828
5619 5622 5625 5628 5632 5635 5638 5644 5653 5659 5665 5672 5678 5685 5691 5697 5704 5709 5715 5720 5726 5732 5737 5743 5748 5753 5757 5761 5765 5768 5772 5775 5779 5783 5786 5789 5792 5795 5799 5802 5805 5807 5810 5812 5814 5816 5818 5820 5822
5606 5608 5610 5614 5617 5620 5624 5630 5638 5645 5651 5658 5666 5673 5680 5686 5693 5698 5703 5709 5715 5721 5727 5733 5739 5744 5748 5753 5757 5761 5765 5768 5772 5775 5779 5782 5785 5789 5792 5795 5798 5800 5803 5805 5808 5810 5811 5813 5815
5592 5593 5597 5601 5604 5607 5611 5617 5624 5631 5638 5647 5654 5661 5668 5675 5681 5687 5692 5698 5705 5711 5717 5723 5729 5735 5740 5745 5749 5753 5757 5760 5764 5768 5771 5774 5778 5781 5784 5788 5790 5793 5796 5798 5800 5802 5804 5806 5808
5580 5582 5585 5588 5591 5594 5599 5605 5612 5619 5626 5634 5642 5649 5656 5663 5670 5676 5682 5688 5694 5701 5707 5714 5720 5725 5731 5735 5739 5744 5748 5752 5756 5760 5763 5767 5770 5773 5776 5780 5783 5785 5788 5790 5793 5795 5797 5799 5800
5570 5572 5574 5576 5580 5584 5589 5593 5602 5609 5616 5623 5631 5638 5645 5652 5659 5665 5671 5677 5684 5691 5697 5704 5710 5716 5721 5726 5730 5735 5739 5744 5748 5752 5755 5759 5762 5765 5768 5771 5774 5777 5779 5782 5784 5786 5789 5790 5792
5561 5563 5566 5568 5570 5574 5579 5583 5592 5599 5606 5614 5621 5628 5635 5642 5648 5655 5661 5668 5674 5681 5687 5694 5700 5706 5711 5716 5721 5726 5731 5735 5739 5743 5746 5750 5753 5756 5760 5763 5766 5768 5771 5773 5775 5778 5780 5782 5784
5553 5556 5558 5559 5561 5564 5571 5574 5581 5589 5597 5604 5611 5618 5624 5631 5638 5644 5651 5657 5664 5671 5677 5684 5690 5696 5701 5707 5712 5717 5721 5725 5729 5733 5737 5741 5744 5747 5751 5754 5756 5759 5762 5764 5766 5769 5771 5773 5775
5547 5549 5550 5551 5552 5557 5564 5566 5573 5581 5589 5596 5602 5609 5615 5621 5628 5634 5641 5647 5654 5661 5668 5674 5680 5686 5692 5697 5702 5707 5712 5716 5720 5724 5727 5731 5735 5737 5741 5744 5747 5749 5752 5754 5757 5759 5762 5763 5765
5541 5542 5545 5545 5547 5552 5556 5559 5568 5574 5580 5587 5593 5599 5606 5612 5619 5625 5632 5638 5645 5652 5658 5665 5671 5677 5682 5688 5693 5697 5702 5706 5710 5714 5718 5722 5725 5728 5731 5734 5737 5740 5742 5745 5747 5749 5751 5754 5756
5534 5536 5539 5541 5542 5545 5548 5554 5561 5567 5573 5579 5585 5591 5597 5604 5610 5616 5623 5629 5636 5642 5649 5655 5661 5667 5673 5678 5683 5687 5692 5696 5700 5704 5708 5712 5715 5718 5721 5724 5726 5730 5732 5735 5738 5740 5742 5744 5747
5529 5531 5533 5535 5536 5538 5542 5547 5554 5560 5566 5571 5577 5583 5589 5595 5601 5608 5614 5620 5627 5633 5639 5646 5651 5657 5663 5668 5673 5678 5682 5686 5691 5694 5698 5701 5704 5708 5711 5714 5717 5720 5722 5725 5728 5730 5732 5735 5737
5525 5527 5528 5530 5532 5534 5537 5544 5548 5553 5559 5564 5570 5576 5581 5587 5593 5599 5605 5611 5618 5624 5630 5636 5642 5647 5653 5658 5663 5668 5672 5676 5680 5684 5688 5691 5694 5697 5700 5704 5707 5710 5712 5715 5717 5720 5723 5725 5728
5520 5522 5524 5526 5527 5529 5533 5540 5542 5548 5552 5557 5563 5568 5573 5579 5585 5591 5597 5602 5609 5615 5620 5626 5632 5638 5643 5648 5653 5657 5662 5666 5670 5674 5677 5680 5684 5687 5690 5693 5696 5699 5702 5705 5708 5710 5713 5715 5718